GFSNIL_prec_cthk_000.txt.gz
RH
54 51 48 43 37 33 29 27 25 28 33 37 38 50 46 58 65 64 57 58 55 55
48 43 36 31 27 22 19 18 24 35 42 57 51 62 66 65 61 61 64 64 59 56
45 40 31 26 22 18 15 21 33 43 52 59 62 63 59 58 58 59 60 59 52 51
41 33 28 23 20 18 20 30 39 44 45 45 46 42 45 46 50 54 52 47 42 44
37 33 28 24 21 20 22 29 37 38 42 43 40 45 51 58 55 48 41 39 38 41
37 33 29 25 22 21 27 35 39 43 43 40 47 54 57 54 43 37 35 36 42 43
38 35 29 24 23 25 31 35 38 42 40 46 56 58 60 54 41 37 37 43 44 43
38 33 27 26 27 28 31 32 42 40 42 51 62 62 61 58 46 39 39 42 42 44
35 30 27 28 29 32 37 42 46 45 50 66 64 65 70 61 42 39 37 37 41 42
34 30 29 30 33 36 42 49 53 57 69 67 67 73 75 54 43 37 35 41 42 41
33 32 30 33 36 41 46 53 58 63 68 73 76 75 60 46 38 37 40 44 43 42
34 32 32 34 40 44 51 60 64 69 74 72 62 53 48 42 39 38 45 45 46 47
34 36 36 39 46 50 55 62 65 63 55 49 54 51 46 43 40 45 45 47 49 53
36 37 42 44 51 54 57 58 56 55 53 56 53 48 45 42 46 47 46 46 51 57

GFSNIL_prec_cthk_003.txt.gz
RH
58 54 46 41 35 29 26 23 20 20 27 36 41 45 52 52 61 48 49 48 51 48
55 48 45 40 34 28 25 23 22 25 34 41 49 46 60 46 39 38 39 45 52 49
50 46 41 36 31 27 24 22 27 35 44 51 46 44 40 37 39 43 47 49 43 37
47 44 39 34 29 27 25 25 30 40 48 41 45 47 39 43 47 48 45 41 34 33
48 42 38 33 31 28 26 28 35 40 42 43 48 40 46 51 54 53 47 37 35 36
45 42 39 34 31 29 27 28 34 38 42 42 40 46 53 54 56 56 53 44 36 36
45 44 40 33 30 29 28 31 35 43 43 45 47 52 60 61 60 65 61 42 36 35
48 45 38 33 29 29 31 36 37 44 43 48 53 62 64 64 70 67 51 40 35 37
47 43 36 30 28 31 35 40 41 46 49 55 63 76 70 73 71 55 42 37 38 39
46 39 32 30 30 32 35 40 45 51 56 64 66 70 72 65 50 43 42 40 38 44
41 35 32 31 31 32 35 40 48 55 60 61 61 60 52 48 43 42 41 40 44 47
36 32 32 32 34 34 38 45 48 51 53 52 51 49 51 47 43 42 42 45 47 49
30 29 32 33 36 38 43 48 48 49 50 54 51 52 50 47 42 44 47 44 45 48
27 28 30 32 41 44 48 47 49 54 55 56 55 54 52 47 46 49 47 42 37 46

GFSNIL_prec_cthk_009.txt.gz
RH
65 74 72 50 46 41 36 34 35 39 42 46 44 41 44 54 54 57 62 48 47 52
68 66 59 51 43 39 36 35 41 43 47 46 44 51 53 46 46 53 51 48 57 58
66 62 56 44 42 40 38 40 42 40 41 45 49 46 48 51 50 60 59 53 61 62
65 63 48 45 44 42 43 45 40 37 37 39 44 50 51 50 46 59 60 60 67 68
60 52 48 48 47 46 49 44 38 39 40 45 44 43 41 47 49 55 65 69 70 70
62 53 52 52 50 53 47 41 42 42 46 46 46 48 54 52 59 67 68 72 72 70
59 58 55 55 58 54 45 41 41 46 46 44 48 47 51 55 59 63 70 75 71 54
61 60 61 61 58 52 44 42 42 47 47 52 56 53 46 52 59 62 59 56 51 45
68 69 65 60 58 49 44 44 47 51 50 54 57 53 53 43 45 46 49 50 44 45
76 72 63 60 53 51 50 52 52 53 49 53 55 51 44 44 49 51 50 48 47 48
79 68 62 54 52 53 56 59 57 53 53 54 50 50 48 53 54 53 51 49 47 51
72 65 56 52 54 59 54 56 57 56 53 50 53 51 54 57 52 52 51 49 52 49
69 59 52 56 52 51 56 55 57 56 51 47 53 53 57 51 50 50 51 53 52 48
63 60 61 49 48 50 48 52 55 54 51 52 54 58 50 50 50 50 49 52 48 50

GFSNIL_prec_cthk_012.txt.gz
RH
53 57 57 56 52 54 54 42 36 36 33 40 43 40 32 35 41 41 44 50 53 53
56 61 62 56 51 51 44 37 39 35 40 44 46 38 39 38 40 40 43 53 54 60
61 66 64 56 51 53 45 40 39 42 43 37 38 45 47 43 47 47 45 59 63 57
65 66 65 61 62 56 44 42 47 46 41 36 38 43 44 45 43 47 48 63 63 61
68 69 72 62 58 49 48 53 52 45 40 43 50 48 41 42 44 52 50 48 59 65
71 81 73 73 60 54 58 58 53 47 46 54 51 47 48 51 54 54 60 58 61 55
75 78 74 68 62 65 69 62 54 51 53 59 51 56 56 60 56 52 51 53 51 51
78 75 72 69 71 76 74 60 57 55 63 63 58 64 64 59 50 47 43 42 44 44
76 76 80 84 76 70 65 62 64 66 65 65 64 62 59 56 51 37 41 46 43 41
79 83 88 80 75 73 66 74 71 70 73 69 65 51 49 50 46 50 51 46 40 42
86 91 89 83 74 66 77 68 71 73 76 65 61 60 53 51 52 56 47 44 42 44
94 88 83 74 73 72 65 67 69 69 67 66 55 51 55 53 57 51 46 43 44 47
91 90 81 77 70 65 64 62 62 64 61 60 52 53 53 62 55 49 45 43 44 48
92 83 76 70 66 65 59 55 54 52 51 51 49 52 61 61 50 47 44 43 47 49

GFSNIL_prec_cthk_015.txt.gz
RH
50 49 52 56 61 61 54 51 47 50 46 37 41 47 47 40 38 37 40 40 36 45
51 54 58 63 63 59 58 68 54 45 39 40 45 48 49 47 46 43 45 51 58 54
59 61 64 66 67 75 72 64 55 61 50 48 48 50 51 52 53 58 57 61 62 59
63 69 77 74 80 74 72 65 58 54 55 54 56 57 51 52 56 59 60 57 56 55
74 80 77 74 78 77 68 60 58 62 62 56 59 58 56 56 60 59 59 60 58 59
77 76 72 78 78 71 67 69 75 72 61 62 62 63 60 64 66 63 60 57 57 48
73 71 78 79 79 75 79 78 69 64 64 69 75 72 72 69 66 62 59 56 48 38
67 72 77 78 78 87 80 73 75 73 78 76 79 74 65 57 59 55 59 44 34 41
68 72 75 83 89 86 81 76 83 81 80 82 78 74 62 60 57 50 44 43 44 45
72 75 81 91 92 89 83 85 82 79 79 77 76 66 62 60 56 52 49 51 48 45
80 83 89 96 92 88 86 82 75 74 74 74 68 61 58 62 57 50 55 53 48 45
85 89 96 95 91 88 77 74 68 68 71 59 58 57 60 59 56 55 56 54 49 44
88 96 96 93 85 78 72 68 68 58 48 45 50 52 55 56 55 57 52 48 44 44
97 96 93 86 77 74 70 60 45 44 41 41 44 50 52 53 55 53 51 49 45 47

GFSNIL_prec_cthk_018.txt.gz
RH
68 62 63 66 66 65 66 68 66 77 76 58 55 50 56 55 56 56 52 49 52 56
71 65 65 68 68 68 67 79 82 73 60 59 56 51 51 57 60 59 57 56 56 58
71 68 68 68 69 73 83 81 66 65 59 57 56 59 58 58 61 57 58 63 69 67
69 74 78 83 81 89 78 73 70 64 63 65 73 64 60 64 64 65 70 73 68 66
69 74 76 76 71 70 75 76 70 72 76 71 60 63 68 75 80 73 71 66 68 71
73 75 69 65 66 72 75 73 77 79 71 71 76 77 80 80 71 71 71 71 67 61
74 69 66 68 70 72 74 77 78 76 77 75 79 85 83 78 73 72 68 60 54 52
69 69 70 68 70 74 81 84 84 79 82 83 81 81 80 78 78 69 60 56 49 45
71 70 68 72 76 79 83 87 86 90 82 82 78 78 79 72 63 62 66 60 49 47
71 72 76 77 79 83 86 92 89 83 80 73 71 76 72 63 62 59 66 65 53 51
77 79 78 77 80 87 96 90 85 78 74 71 66 60 58 56 52 51 50 51 51 52
75 74 82 84 88 93 94 86 76 72 69 62 54 49 50 45 49 51 54 53 53 48
88 92 89 98 95 87 85 78 71 69 57 47 40 38 40 45 50 48 50 52 48 46
94 89 86 85 83 76 72 66 65 51 41 35 34 37 41 44 47 46 48 50 47 47

GFSNIL_prec_cthk_021.txt.gz
RH
73 72 80 80 79 76 73 71 70 65 86 93 76 59 63 59 61 66 65 68 64 62
74 83 83 79 80 81 80 79 77 83 82 71 70 62 55 65 74 68 66 67 67 67
76 80 78 80 83 82 83 82 80 77 76 75 66 65 78 69 68 69 66 67 71 71
65 72 77 78 78 82 83 76 73 73 76 71 74 73 70 72 75 73 78 72 71 71
80 82 83 85 88 87 74 70 74 73 74 79 78 85 81 75 75 73 66 65 65 68
83 85 86 87 83 73 72 76 74 79 82 84 91 81 79 77 71 68 71 72 68 62
81 81 85 78 74 74 73 76 82 85 87 92 82 81 73 75 74 73 76 71 63 62
73 72 74 76 74 72 76 82 81 80 89 85 80 80 77 75 79 76 69 61 56 60
65 70 76 72 72 77 80 80 82 93 93 87 84 74 75 74 70 66 60 56 54 47
70 72 73 76 77 77 79 87 92 93 94 87 73 67 63 59 55 54 52 48 51 54
76 81 79 79 79 80 91 97 85 86 86 71 63 60 56 44 45 46 47 47 46 46
77 77 76 86 97 89 96 92 82 78 74 68 55 45 41 38 40 41 43 44 47 44
78 85 83 81 84 82 79 77 80 75 63 50 37 38 28 33 38 42 45 47 44 45
81 84 84 81 78 79 76 71 62 49 43 37 37 28 31 36 43 47 47 45 47 49

GFSNIL_prec_cthk_024.txt.gz
RH
73 74 72 81 82 88 85 82 81 82 81 79 79 74 79 71 60 68 75 64 61 63
66 71 76 88 91 87 84 80 90 81 84 78 76 83 69 69 73 73 64 62 64 67
68 74 78 79 78 86 84 87 87 86 79 75 78 71 73 73 74 68 68 70 69 62
74 77 82 87 89 90 89 89 86 80 76 77 74 73 75 83 73 74 72 67 55 50
81 86 89 92 95 93 91 85 80 80 74 72 74 81 85 73 74 74 70 65 61 55
81 87 92 93 94 85 81 74 76 76 75 83 84 91 80 81 80 72 70 70 60 58
74 77 80 85 85 75 72 74 79 82 85 84 88 94 90 85 77 70 71 63 57 50
68 71 76 77 70 73 77 79 85 81 84 91 98 95 91 82 68 63 62 59 47 45
64 64 67 72 76 82 86 83 85 87 95 95 97 90 87 72 66 62 55 44 43 47
57 64 74 76 82 86 85 88 87 90 97 96 91 78 67 59 59 53 38 37 42 48
59 68 77 81 84 84 83 95 95 88 88 88 86 77 63 64 46 36 37 33 41 48
65 75 79 85 85 86 85 96 92 81 78 76 74 64 50 41 35 30 28 36 42 46
76 80 83 86 90 86 80 78 79 78 76 70 50 45 40 32 28 27 32 38 45 51
76 77 79 79 77 77 76 76 70 58 51 43 40 35 29 29 30 35 40 44 54 60

GFSNIL_prec_cthk_027.txt.gz
RH
75 82 85 87 88 88 87 91 91 91 86 81 85 92 90 79 79 68 68 71 64 60
63 73 81 82 83 87 93 94 90 89 87 85 95 84 80 78 75 73 76 66 61 59
76 84 83 84 88 88 90 94 95 92 85 96 80 73 78 77 77 85 73 66 66 63
78 79 80 82 87 92 95 98 98 91 93 79 70 82 77 82 86 79 74 75 72 63
73 75 76 79 91 94 96 97 94 87 72 69 80 81 88 83 86 83 82 73 73 70
58 60 69 77 87 91 90 87 86 75 71 81 83 85 82 93 92 86 78 76 68 52
51 55 62 69 73 74 77 76 78 70 74 79 84 92 95 94 92 84 82 80 64 55
41 47 52 59 62 69 74 80 78 78 85 82 97 97 95 95 89 83 78 71 59 56
34 42 52 61 64 70 77 78 78 77 87 87 92 96 97 95 81 71 63 55 52 46
42 49 54 60 67 75 83 76 82 81 96 91 93 93 93 88 78 66 55 47 42 37
47 51 58 67 73 79 78 85 95 90 94 91 85 84 81 79 67 51 42 36 30 30
52 59 65 72 77 84 88 85 85 86 86 80 81 82 73 54 40 33 28 26 28 31
60 63 68 72 72 76 78 77 77 78 77 75 66 55 41 35 32 29 26 28 33 39
58 60 63 68 72 72 72 72 68 59 49 41 36 30 28 30 30 30 31 35 42 51

GFSNIL_prec_cthk_030.txt.gz
RH
71 76 80 78 86 94 93 92 92 91 94 93 91 88 80 94 93 85 76 73 81 76
68 65 65 76 82 85 87 88 88 92 96 94 90 84 89 95 85 75 77 87 85 80
54 55 68 89 88 89 90 91 88 90 93 95 95 89 97 82 76 80 89 91 86 84
49 65 79 78 84 86 86 91 92 95 97 98 94 91 80 75 78 79 92 94 91 82
66 70 65 63 62 71 82 83 88 93 91 85 81 80 73 80 84 94 98 95 89 85
60 65 67 61 58 62 61 65 75 80 78 77 79 77 79 86 93 96 91 88 90 89
55 54 53 49 51 54 58 60 71 74 75 74 77 75 83 90 97 96 92 89 88 87
44 40 41 43 46 52 59 65 69 73 67 77 84 82 92 97 96 96 96 94 81 75
34 36 36 41 49 55 59 62 61 65 71 78 88 93 98 97 93 94 92 81 79 70
34 36 42 47 51 54 58 62 66 71 81 83 83 90 90 89 89 85 77 74 66 53
37 42 48 53 58 62 65 71 74 77 81 84 84 84 84 85 78 70 64 53 45 40
44 50 54 58 62 64 66 67 69 70 72 75 76 77 75 69 57 47 41 42 41 38
52 56 58 59 59 57 60 64 63 65 66 67 64 55 45 41 38 37 38 38 36 35
56 57 57 56 58 59 61 62 59 52 46 40 38 35 33 34 36 38 39 39 37 38

GFSNIL_prec_cthk_033.txt.gz
RH
69 76 79 73 75 76 85 90 97 88 91 92 93 90 95 93 95 95 98 96 84 89
76 75 75 68 63 68 71 78 85 91 88 89 90 92 95 97 92 94 96 88 87 85
85 75 72 64 61 65 75 73 73 80 82 84 89 93 97 96 93 93 86 79 83 86
74 73 68 59 60 70 64 64 63 67 72 72 80 84 93 88 86 80 76 78 90 92
63 54 52 68 70 70 69 70 65 61 60 63 71 78 84 80 82 84 82 85 92 89
47 55 62 62 61 60 57 55 55 55 58 63 73 82 76 79 77 89 93 97 94 93
58 60 62 59 55 56 54 54 56 59 63 71 73 76 81 78 80 96 96 97 97 96
66 61 55 51 44 42 42 46 53 64 68 69 75 73 76 85 88 88 95 94 94 89
53 50 44 40 41 42 47 51 56 60 65 66 68 71 79 84 84 86 85 84 84 83
45 42 40 38 40 46 48 52 57 62 65 68 71 75 75 79 81 75 77 75 69 61
40 36 35 40 45 49 53 57 61 64 66 67 68 68 68 70 74 71 63 56 55 49
34 38 43 47 51 55 58 60 62 61 61 61 61 65 68 64 57 52 46 42 40 41
41 45 48 50 53 55 55 54 54 57 58 58 55 52 50 44 38 37 38 38 37 37
45 48 51 52 52 52 51 48 48 47 49 48 47 46 42 40 39 35 32 30 30 31

GFSNIL_prec_cthk_036.txt.gz
RH
72 70 81 81 83 78 80 65 65 77 82 81 83 86 86 87 90 90 94 97 98 96
74 80 81 81 91 78 75 66 65 75 73 68 67 71 78 79 76 87 88 95 95 90
66 76 83 81 90 90 79 67 74 75 72 70 69 67 67 66 79 75 86 82 82 82
71 79 82 80 83 72 67 68 72 68 66 58 58 59 61 64 71 85 80 80 91 87
80 81 79 79 61 55 71 68 65 61 56 56 58 66 66 67 71 71 94 85 81 82
71 70 81 60 58 65 68 64 61 57 57 58 61 61 64 65 80 74 80 84 82 85
65 70 58 60 64 67 64 59 56 49 46 51 54 65 63 74 71 84 78 77 83 92
53 58 67 67 64 57 53 47 46 45 49 53 59 62 68 70 74 73 78 83 84 85
66 65 59 55 52 44 43 41 42 47 51 56 58 64 66 70 73 74 74 75 75 73
60 56 53 50 46 43 40 41 45 48 52 57 61 66 68 66 66 67 66 65 63 57
54 53 48 42 38 37 42 46 49 53 55 57 58 58 60 62 61 59 58 56 50 44
48 44 38 36 38 42 45 49 53 54 52 55 56 57 56 56 56 55 49 43 42 40
40 37 37 41 43 46 48 49 51 52 51 50 52 54 52 49 45 41 38 36 32 28
35 38 41 43 44 47 48 49 48 44 45 47 47 47 47 45 42 36 31 27 27 28

GFSNIL_prec_cthk_039.txt.gz
RH
53 56 64 67 71 82 90 83 86 81 78 68 80 79 76 73 70 70 67 68 71 74
59 59 60 66 81 81 79 78 87 92 81 80 83 77 74 66 62 63 66 68 80 71
58 56 62 72 80 86 78 80 81 87 85 86 78 71 67 62 62 69 68 65 70 76
70 62 69 77 91 91 94 82 66 83 80 68 69 64 61 62 65 67 66 71 75 79
78 90 94 90 96 97 77 72 69 70 70 67 65 60 60 62 64 67 65 71 80 75
83 73 69 61 80 80 68 60 66 70 67 62 59 56 53 54 56 69 64 73 74 81
53 52 57 66 64 65 63 72 70 63 59 50 44 45 51 55 64 61 71 73 76 80
49 55 54 59 62 63 71 67 58 48 46 43 45 50 53 58 65 67 71 72 75 74
44 48 54 60 67 63 59 52 46 42 43 45 50 55 59 62 65 69 70 72 71 70
46 55 59 55 52 51 49 45 40 39 44 49 52 56 59 62 66 63 62 61 60 54
54 57 51 45 46 46 41 38 37 41 45 49 53 56 58 58 57 57 55 54 53 50
47 44 43 42 42 39 37 37 41 43 44 47 50 52 55 54 53 48 49 49 51 48
45 42 42 41 37 35 38 41 43 44 44 50 54 54 49 50 53 51 50 49 45 40
39 44 42 38 37 39 42 43 44 46 49 51 52 52 52 52 52 52 50 42 39 37

GFSNIL_prec_cthk_042.txt.gz
RH
49 52 54 62 67 74 75 76 86 94 94 89 89 84 85 86 80 72 66 61 63 68
51 55 58 62 68 76 77 83 86 89 89 91 93 93 85 86 74 66 62 70 72 68
55 59 62 61 64 74 76 83 93 95 90 82 87 81 85 77 71 63 69 75 67 68
77 81 78 79 78 88 90 95 91 87 85 87 81 78 76 70 65 66 71 72 70 65
87 85 81 90 93 87 98 97 72 71 75 70 75 80 69 67 65 66 66 64 64 67
85 76 82 77 84 78 84 96 71 66 69 74 74 68 66 64 62 59 56 55 59 69
67 63 62 66 66 69 67 76 74 73 74 71 69 66 59 50 47 52 53 62 68 68
56 50 55 57 60 58 66 70 73 79 72 69 59 49 43 46 54 54 55 65 67 71
51 52 54 56 60 67 71 70 69 67 59 52 47 43 45 50 54 58 65 65 71 71
50 53 57 59 62 66 67 62 53 49 49 47 44 47 50 55 57 61 63 70 71 67
54 56 57 65 66 59 51 49 48 49 46 44 47 51 53 55 56 61 66 65 60 58
58 63 66 64 56 51 51 50 50 46 42 45 48 50 51 53 56 60 60 60 56 54
58 59 54 50 48 47 45 48 43 40 43 45 46 48 51 54 59 62 59 56 57 60
48 45 44 43 42 43 46 43 39 41 44 46 48 51 53 58 62 62 61 59 58 54

GFSNIL_prec_cthk_045.txt.gz
RH
44 46 52 52 59 62 63 63 61 63 67 72 84 92 91 98 95 91 90 86 72 65
50 51 52 56 56 58 60 69 78 78 82 86 95 92 97 96 87 87 84 74 74 76
51 57 64 62 63 63 66 73 87 93 86 91 95 97 94 90 82 80 75 72 78 74
71 74 77 80 75 75 81 83 89 91 96 89 94 96 90 87 83 74 64 67 74 75
77 83 86 88 83 91 90 93 86 95 98 75 79 84 84 80 73 67 65 70 69 65
60 77 78 79 69 77 81 84 87 76 65 69 78 77 77 74 68 69 70 67 65 66
46 52 62 72 64 65 77 75 74 73 69 71 77 76 80 73 70 66 63 59 58 61
38 46 56 70 66 68 65 72 75 77 78 76 76 82 83 73 65 56 53 53 56 57
40 50 59 67 64 64 68 71 74 73 82 77 79 80 72 61 49 46 55 58 60 59
46 52 57 60 61 61 62 71 72 75 76 76 67 64 57 50 47 55 56 59 60 62
44 51 58 61 61 60 65 71 68 72 62 61 58 56 52 48 52 55 58 60 62 66
46 56 58 60 62 64 64 70 70 60 57 56 56 54 49 51 55 58 60 62 67 73
53 56 59 64 67 73 72 64 59 60 59 56 57 54 53 56 58 61 63 65 66 70
56 59 62 67 65 61 59 59 58 58 56 57 56 54 56 57 57 59 59 61 65 68

GFSNIL_prec_cthk_048.txt.gz
RH
46 47 52 50 51 55 59 55 57 56 55 61 66 70 76 75 86 99 99 98 95 93
45 47 48 48 49 54 58 58 58 57 61 62 65 67 77 83 87 94 97 94 93 86
44 47 51 54 59 62 60 55 51 51 64 71 79 85 92 92 94 93 93 92 89 87
51 52 52 56 60 68 71 65 65 66 67 71 86 95 98 98 94 91 97 94 89 78
69 68 66 67 73 81 77 80 82 80 86 88 88 93 96 95 88 91 91 84 78 70
50 52 55 58 68 79 77 76 83 86 90 80 75 74 80 81 80 78 81 78 72 68
41 42 45 52 58 63 77 75 74 85 88 88 77 72 73 78 80 83 83 72 67 67
30 32 36 41 49 58 72 76 77 75 82 82 83 85 79 72 77 82 78 72 66 60
34 34 33 40 50 57 65 69 72 73 71 79 80 82 82 80 81 76 72 69 60 51
37 37 35 39 50 58 62 69 73 72 73 80 82 79 77 80 76 72 67 58 52 48
39 38 36 40 50 59 68 74 78 75 74 79 82 84 84 72 69 63 62 56 54 56
43 41 40 46 52 61 70 71 75 77 77 75 78 81 69 66 65 57 61 61 59 61
50 45 48 51 55 57 61 63 67 72 78 77 78 68 68 66 63 65 68 63 64 66
59 53 51 49 57 58 59 64 68 73 75 71 66 69 69 67 69 72 70 67 67 69

GFSNIL_prec_cthk_051.txt.gz
RH
46 49 51 52 51 50 53 56 58 60 60 60 60 62 60 60 63 66 68 77 82 90
43 45 47 52 53 56 59 60 59 58 57 57 58 61 64 65 67 70 72 79 88 84
38 42 47 51 52 54 56 60 66 69 66 64 65 67 69 69 71 76 78 85 95 96
39 44 46 46 51 54 58 62 66 65 62 60 58 61 66 72 75 81 89 93 97 95
51 50 54 59 60 61 62 62 74 70 70 76 70 70 71 76 85 96 96 97 97 97
54 57 56 52 47 51 56 57 68 75 70 82 81 79 80 83 86 93 94 89 88 86
48 47 41 43 44 44 46 47 55 72 76 76 81 78 79 82 82 83 83 83 85 86
35 37 37 35 36 38 41 43 51 63 77 77 81 80 79 82 81 84 82 80 81 86
37 40 39 37 37 38 39 41 49 56 72 78 81 81 81 84 93 89 79 84 82 87
41 41 41 40 41 39 41 45 49 57 65 71 76 80 84 86 86 89 90 86 84 79
47 42 43 45 42 40 44 49 55 62 66 71 75 82 81 78 87 87 86 87 82 82
49 50 46 44 44 43 45 51 57 61 64 69 74 74 76 79 85 83 86 85 80 77
58 60 55 53 58 54 48 50 53 56 60 63 65 68 75 79 82 87 83 80 78 75
60 66 66 68 68 66 58 56 55 59 63 65 68 71 75 82 85 81 78 76 78 78

GFSNIL_prec_cthk_054.txt.gz
RH
49 51 50 51 51 52 53 57 61 63 64 64 65 67 67 65 63 58 54 59 64 71
46 48 49 49 48 48 47 48 50 54 58 58 59 61 63 61 60 61 62 59 61 65
42 44 47 49 48 47 48 49 51 53 60 63 61 58 58 58 59 63 66 67 69 71
42 44 47 48 51 52 55 58 60 61 62 67 66 70 73 73 69 67 70 75 74 75
41 42 43 43 45 50 53 57 57 57 59 66 74 71 72 74 73 71 66 67 66 73
48 45 44 46 49 53 55 55 57 55 56 62 68 78 73 75 85 85 73 76 81 86
49 49 53 57 57 52 48 46 46 45 48 55 62 72 77 79 81 87 80 82 85 89
48 50 55 51 50 50 45 44 46 46 47 52 57 66 81 83 80 79 84 85 85 83
43 42 42 41 41 45 44 43 44 44 48 51 57 59 70 80 86 87 82 85 88 84
45 44 45 45 47 47 50 50 47 43 46 50 57 62 73 81 85 88 91 92 91 89
51 48 51 50 51 53 53 52 52 48 49 53 61 67 74 79 82 85 87 89 90 90
53 55 56 57 57 57 58 57 55 54 52 54 59 66 69 72 77 82 83 85 84 84
57 59 61 60 57 55 62 63 61 61 57 56 58 61 65 71 75 78 80 83 86 87
63 63 62 64 64 61 69 72 74 77 74 67 60 62 66 70 74 79 82 86 87 88

GFSNIL_prec_cthk_057.txt.gz
RH
54 55 57 58 59 59 59 59 64 69 70 68 69 70 71 76 84 77 79 82 81 79
45 47 49 51 52 50 51 52 53 56 58 60 60 60 63 64 68 68 66 68 70 61
41 46 47 49 49 50 51 51 52 52 55 57 59 66 67 64 63 63 60 62 61 60
39 44 49 52 53 54 56 55 60 63 65 66 66 69 74 74 74 73 73 73 72 67
34 37 40 45 50 53 56 60 61 63 61 59 60 62 65 69 72 72 74 78 81 80
35 36 38 40 43 46 50 55 58 61 58 57 56 57 59 60 65 74 77 77 78 86
41 39 40 43 45 47 51 55 55 56 53 53 52 50 52 57 59 66 74 76 81 79
46 50 56 55 55 54 56 55 53 53 50 49 50 48 49 51 55 59 67 75 83 83
55 55 54 55 54 58 59 57 56 50 50 50 46 43 45 52 55 59 63 74 88 92
57 54 52 51 52 54 54 55 52 53 55 54 53 50 45 49 57 63 69 74 83 90
57 56 55 55 53 56 53 51 55 58 59 59 60 59 55 58 63 68 71 75 82 88
55 58 58 54 54 56 57 56 61 65 65 65 64 64 66 67 64 64 69 74 75 81
58 57 57 57 62 61 61 60 60 61 64 68 71 71 71 76 81 78 70 71 75 79
63 64 63 66 68 64 62 63 64 66 70 71 71 74 80 83 85 83 83 82 83 81

GFSNIL_prec_cthk_060.txt.gz
RH
53 58 59 62 63 62 65 71 69 67 68 73 81 81 79 75 72 75 76 81 92 87
45 48 51 56 57 57 57 59 64 61 62 68 73 75 67 62 65 68 72 74 77 78
39 43 44 48 49 51 54 56 57 55 59 65 71 70 63 65 70 68 70 77 78 74
36 40 44 45 46 48 50 51 54 55 58 63 73 73 69 68 71 72 73 76 76 76
33 37 38 42 44 47 49 51 53 57 60 61 59 60 60 62 64 65 68 71 75 78
35 33 32 34 38 42 45 47 50 52 53 57 56 55 54 55 55 57 60 61 63 70
39 34 33 36 39 41 42 43 47 50 55 57 57 57 55 54 52 52 53 56 58 59
50 48 46 45 44 45 48 49 51 51 53 55 55 54 53 53 55 54 54 55 55 57
59 58 57 55 54 57 56 54 53 52 54 55 53 50 48 52 54 54 54 54 57 60
59 60 59 60 63 61 59 60 58 57 57 57 56 53 55 60 63 64 61 59 58 62
59 59 59 62 64 64 60 60 61 61 59 61 56 57 60 65 67 68 69 70 68 67
60 61 64 64 63 67 69 66 64 63 66 63 61 61 67 71 73 74 74 74 76 78
54 60 61 65 66 68 69 69 67 66 63 64 66 67 68 70 72 75 79 79 79 81
52 55 59 65 69 72 72 71 71 71 70 69 70 73 75 77 81 82 83 85 85 87

GFSNIL_prec_cthk_063.txt.gz
RH
48 51 53 54 57 61 66 67 69 70 72 73 73 73 74 79 83 83 86 78 80 80
43 46 48 51 52 53 55 58 60 62 63 65 66 72 76 79 82 79 81 77 73 75
39 42 46 46 46 48 49 50 54 56 57 59 60 61 65 69 71 72 77 72 69 70
36 39 42 46 47 48 49 49 48 49 52 54 56 59 64 65 68 72 76 74 73 72
39 39 41 41 45 48 49 50 52 53 54 58 60 60 60 60 64 68 70 67 68 67
42 39 40 41 41 45 47 48 50 51 50 52 53 56 58 57 58 59 59 58 57 55
51 44 41 40 41 43 45 45 45 47 47 49 52 55 57 56 55 54 52 52 52 52
62 58 55 48 42 43 48 48 50 52 51 53 53 52 54 54 56 57 55 53 50 51
59 59 56 60 61 59 54 50 56 55 57 58 53 51 56 59 59 59 56 53 56 57
73 71 61 59 62 64 66 67 65 63 64 63 64 61 61 63 70 67 62 64 68 68
65 72 73 66 64 63 62 66 67 69 70 71 67 66 67 72 74 73 69 70 72 72
56 60 69 74 71 66 67 65 67 71 76 75 72 74 72 76 82 84 81 77 78 79
45 50 55 56 61 66 68 67 71 73 73 72 75 70 73 80 84 84 80 81 84 85
41 46 48 49 51 58 64 68 72 77 78 81 80 78 80 83 86 87 86 88 86 85

GFSNIL_prec_cthk_066.txt.gz
RH
44 47 49 52 61 72 78 84 88 90 93 96 92 90 90 88 82 75 77 81 82 78
42 45 47 51 53 60 68 71 71 72 72 76 77 75 74 73 72 73 75 80 82 81
37 44 48 50 51 52 55 60 61 60 60 62 63 65 66 69 71 67 72 76 76 76
36 38 44 48 49 49 51 52 53 55 57 57 57 59 60 61 62 62 68 69 71 72
36 39 39 40 46 49 49 50 51 51 51 54 56 60 62 63 63 64 64 68 71 71
48 40 39 39 40 43 48 50 51 52 53 54 57 59 60 60 61 61 60 61 61 59
61 60 55 46 39 37 41 45 48 51 52 53 54 54 54 57 59 62 60 59 57 56
72 72 72 68 63 55 44 41 45 47 48 51 53 52 55 57 58 59 60 61 59 57
73 77 78 79 77 73 68 65 55 50 49 51 50 51 56 59 59 61 63 61 61 64
67 70 74 76 80 75 72 74 72 71 69 65 58 53 55 59 62 63 64 63 65 68
55 60 67 70 69 70 70 72 71 70 71 71 69 68 68 70 70 69 67 68 69 71
41 48 51 54 58 61 66 67 68 67 71 74 72 71 75 77 83 82 81 80 76 75
28 31 33 41 45 46 52 59 66 67 70 73 73 76 79 81 87 86 86 85 83 80
23 24 26 27 30 36 41 41 46 60 68 71 73 76 77 80 85 86 87 90 89 89

GFSNIL_prec_cthk_069.txt.gz
RH
41 45 48 54 62 70 86 94 94 94 97 98 96 94 92 95 96 98 94 90 82 84
37 42 44 48 55 64 73 80 88 91 94 97 97 95 95 95 96 96 93 91 87 87
34 40 43 45 47 52 58 66 69 74 76 78 82 86 89 90 91 91 91 91 83 78
35 39 44 47 48 49 52 56 58 60 61 64 65 68 75 78 79 77 77 78 76 72
46 42 43 44 48 53 54 55 57 59 59 59 60 60 59 61 63 63 63 65 70 69
61 55 52 46 44 47 54 58 60 60 60 59 60 61 61 62 63 64 66 68 69 68
73 69 64 60 57 53 50 49 53 58 61 62 63 60 60 60 61 61 62 65 63 62
76 74 75 74 73 69 62 58 56 52 51 55 58 58 58 59 59 59 59 61 61 62
73 72 75 79 83 82 83 80 75 65 59 57 53 49 53 57 58 60 62 62 61 61
66 67 69 73 76 80 83 86 85 83 82 75 68 66 64 62 61 60 61 62 62 64
48 49 53 57 63 70 74 76 79 79 80 79 76 75 75 80 83 85 81 76 70 71
31 31 32 35 38 42 50 60 66 70 72 71 73 77 80 83 86 86 85 87 90 90
24 23 22 22 25 27 28 32 38 43 48 56 64 71 73 77 81 82 85 86 90 89
24 23 20 18 19 21 24 27 27 28 32 36 40 47 54 65 75 81 88 90 91 93

GFSNIL_prec_cthk_072.txt.gz
RH
40 45 49 51 56 65 75 89 94 96 97 97 97 97 95 90 93 93 91 88 91 91
37 42 46 48 51 60 68 80 90 94 99 96 98 98 97 96 94 94 93 95 94 94
35 40 43 46 49 53 61 70 73 80 89 94 97 98 98 97 95 96 95 95 97 96
33 36 41 45 48 48 50 54 60 65 69 74 77 82 87 91 90 89 87 89 90 92
48 39 36 41 46 49 50 51 53 54 54 57 63 67 66 69 72 74 76 78 79 79
64 56 50 44 42 45 48 50 53 54 55 57 57 57 59 60 62 63 64 66 67 68
73 72 68 63 58 55 50 49 49 52 55 55 57 59 61 61 61 62 63 64 63 65
80 78 78 77 77 76 75 69 64 60 56 54 54 57 60 62 61 60 60 61 61 63
78 80 79 77 77 78 81 85 83 84 85 82 73 65 61 60 61 63 65 64 62 63
67 69 72 73 74 74 74 76 78 80 83 84 87 87 88 86 84 81 78 72 67 63
53 52 54 57 58 57 56 60 67 72 74 76 78 78 81 83 85 87 85 86 87 88
42 39 38 36 36 35 36 38 43 45 49 54 58 60 67 73 78 80 82 88 93 94
34 33 30 27 26 27 26 31 32 33 32 32 34 36 39 44 51 60 68 78 80 84
37 34 31 30 30 31 32 32 31 30 27 26 26 28 27 27 31 35 43 53 62 66

GFSNIL_prec_cthk_075.txt.gz
RH
41 47 52 56 60 63 66 83 92 96 97 99 98 96 97 90 85 84 81 77 84 84
37 42 47 50 53 56 63 69 86 94 94 96 97 97 98 96 88 87 87 88 92 88
36 41 43 45 47 53 59 64 69 83 94 96 97 98 98 98 94 88 91 92 90 90
34 39 43 44 45 47 53 59 63 67 72 80 91 91 94 97 97 93 89 90 90 88
43 40 41 44 46 49 50 50 54 55 56 58 63 67 69 69 72 76 79 83 83 82
61 53 47 44 46 50 52 52 52 53 53 53 52 54 55 58 60 63 68 71 73 75
74 74 69 61 55 51 51 54 55 55 56 57 57 58 59 59 60 61 63 64 65 66
84 82 79 77 75 74 72 68 65 64 60 58 57 58 58 58 60 63 64 65 66 65
85 82 82 83 80 78 80 80 82 83 83 84 84 78 79 77 71 63 59 57 59 59
81 77 77 77 77 78 77 78 77 77 78 79 79 81 82 82 84 85 85 85 82 77
65 63 62 62 60 60 62 63 64 64 66 67 70 73 76 78 81 84 86 88 89 86
56 53 50 48 47 47 46 46 46 46 46 46 48 49 50 52 56 59 64 69 73 73
53 47 44 43 42 42 39 38 36 35 35 35 35 36 35 32 31 33 35 37 40 44
52 49 46 43 39 38 40 40 39 38 35 34 33 31 29 28 28 29 30 31 32 33

GFSNIL_prec_cthk_078.txt.gz
RH
34 42 48 53 59 63 68 72 89 95 99 97 95 95 91 82 82 82 83 87 88 86
35 41 47 49 52 55 60 66 75 91 98 98 99 95 94 90 87 86 88 89 85 84
38 41 46 48 49 50 54 60 65 77 90 93 96 98 95 96 95 94 91 88 83 88
40 41 44 47 47 48 53 58 62 65 73 86 94 97 96 94 95 97 96 91 86 87
42 42 46 48 49 49 50 54 58 60 64 69 73 77 79 79 80 82 85 85 83 83
51 46 47 50 52 53 53 53 54 54 55 55 57 60 64 66 67 68 69 70 70 69
68 62 58 56 54 54 56 57 58 58 59 59 59 59 60 61 60 60 61 65 64 65
80 75 72 69 67 66 65 65 65 64 65 68 64 61 62 62 61 62 64 63 65 67
87 86 87 87 85 81 76 73 74 76 78 77 75 76 77 79 79 79 79 80 78 75
92 93 93 92 90 88 86 85 83 81 80 79 77 78 81 84 86 89 90 89 87 90
86 86 88 88 85 85 84 83 82 80 78 77 75 74 74 76 81 83 81 80 80 81
83 75 66 65 67 65 63 62 62 61 60 56 53 50 49 49 52 52 53 52 52 54
69 61 59 59 59 58 54 50 47 47 47 47 44 37 35 34 35 35 36 38 38 37
70 63 62 59 58 57 54 52 50 49 43 38 36 36 35 34 36 36 36 36 37 37

GFSNIL_prec_cthk_081.txt.gz
RH
35 38 40 45 49 54 60 69 82 94 97 97 98 98 97 96 87 83 77 77 79 83
39 36 40 43 47 53 56 63 70 91 95 98 98 97 97 96 94 83 77 82 89 88
38 38 43 43 45 48 52 60 67 82 94 97 98 97 97 96 96 90 85 87 90 89
40 41 41 46 45 46 51 57 61 68 84 94 96 98 98 97 95 94 90 91 90 92
48 40 43 45 49 46 48 53 60 61 66 76 91 96 97 99 96 95 92 94 96 96
63 51 45 47 49 50 49 51 57 58 60 64 70 75 76 82 79 72 73 78 76 77
68 61 55 53 54 54 54 55 58 60 59 60 59 59 61 63 67 70 68 67 66 69
76 71 62 57 58 58 58 59 60 63 63 63 64 64 64 65 66 66 69 71 68 68
85 86 80 75 71 68 66 67 71 74 71 71 73 74 75 77 78 80 78 76 77 81
90 90 89 89 87 86 85 80 78 80 80 80 81 82 82 82 82 81 81 83 86 90
93 93 93 96 97 97 95 94 92 92 90 87 85 85 85 83 83 83 84 83 82 83
92 91 92 90 92 96 98 98 94 90 91 88 85 80 75 71 70 69 65 63 63 60
85 84 86 89 88 80 76 74 69 64 64 61 59 54 50 47 47 46 44 43 43 42
86 82 81 82 77 70 65 63 60 58 51 48 46 43 40 43 43 41 40 40 39 38

GFSNIL_prec_cthk_084.txt.gz
RH
50 42 34 37 42 49 54 59 65 76 89 97 99 99 97 97 98 97 96 94 91 84
52 47 41 40 43 46 50 55 65 69 93 95 96 97 98 98 98 96 94 95 90 86
58 52 45 44 44 49 50 52 60 67 88 94 98 99 99 97 96 97 96 95 92 87
64 55 47 46 48 47 48 49 56 62 77 91 97 98 97 98 97 96 95 95 85 84
72 61 48 49 49 49 47 48 52 60 64 84 93 98 97 97 96 98 99 96 93 92
73 70 60 50 51 51 50 47 52 56 60 63 75 92 95 97 98 96 96 95 94 95
74 72 70 62 53 52 52 51 54 56 58 59 62 67 76 81 85 87 80 75 72 74
76 76 74 69 63 55 54 55 55 58 59 62 62 62 64 66 66 71 67 76 71 65
82 80 78 77 74 69 63 62 63 63 64 63 65 67 67 67 66 69 70 68 76 79
87 84 83 80 79 81 76 71 70 70 73 74 74 74 75 77 79 82 83 87 89 85
92 91 90 92 93 93 92 92 89 81 78 77 80 83 87 88 87 86 86 85 85 86
97 92 92 95 96 96 95 96 97 96 95 95 94 94 94 92 91 88 88 87 86 84
94 94 93 94 95 96 96 96 97 98 97 98 97 94 91 85 77 70 64 61 57 50
98 91 97 93 91 88 88 87 85 82 75 66 64 62 57 54 53 52 52 49 43 40

GFSNIL_prec_cthk_087.txt.gz
RH
61 67 62 45 39 40 45 50 56 63 74 87 96 98 98 99 99 98 98 98 97 95
65 70 64 48 42 40 44 49 55 62 74 84 96 98 99 98 97 99 98 98 98 95
65 75 61 54 46 42 44 49 54 61 72 81 95 97 99 99 98 98 97 96 97 96
69 74 67 57 47 45 46 49 53 58 66 75 96 98 98 98 98 99 98 98 97 98
74 79 73 61 48 49 50 48 49 54 60 66 92 98 98 98 98 97 98 97 97 98
83 82 76 68 57 52 52 52 49 53 58 63 72 96 98 98 98 97 98 98 96 97
85 84 80 77 69 64 54 52 52 53 56 59 63 75 96 98 99 98 98 98 98 99
86 86 84 83 77 74 64 54 53 56 58 60 63 67 72 88 96 98 98 96 87 77
89 88 84 83 82 77 75 70 62 62 62 63 65 67 67 70 71 70 70 75 71 75
92 92 92 91 86 83 80 78 76 71 69 70 70 71 71 70 69 66 69 67 76 73
94 95 94 93 87 86 84 82 83 84 78 76 76 79 81 80 77 77 79 81 80 82
94 98 96 94 92 87 87 87 88 89 89 90 84 81 85 85 85 85 88 90 92 92
98 97 97 95 95 96 97 95 97 98 97 98 97 94 96 97 98 97 94 93 93 94
96 98 98 98 97 96 95 96 96 97 98 98 94 95 96 95 94 93 89 81 68 56

GFSNIL_prec_cthk_090.txt.gz
RH
55 55 57 57 58 46 35 40 45 51 56 63 70 83 95 97 96 98 97 97 96 96
56 54 59 61 62 52 41 44 47 51 56 63 74 86 97 99 99 97 99 99 97 97
51 53 60 62 67 55 44 47 47 50 56 62 71 85 97 98 98 99 98 98 98 98
55 57 62 69 69 59 47 51 50 50 54 62 65 84 97 98 98 99 98 99 98 98
63 62 67 73 72 61 51 54 54 53 52 58 64 82 99 99 99 98 99 99 98 99
70 72 75 78 78 75 60 58 56 55 54 54 64 72 96 98 97 98 98 98 98 98
72 79 79 84 85 80 69 62 57 56 56 55 61 69 80 98 96 98 98 99 98 98
90 85 87 87 89 86 78 71 64 57 59 58 61 64 73 86 98 98 97 97 97 98
96 94 90 89 88 85 84 78 75 69 62 64 65 67 70 73 78 96 98 99 96 98
95 96 97 93 92 90 87 83 81 78 74 70 71 72 74 72 74 70 73 83 82 85
93 93 94 93 91 90 89 85 85 83 81 79 81 79 78 79 78 76 72 70 70 71
94 92 89 93 94 93 91 93 88 85 86 88 90 90 86 83 82 85 84 80 78 74
93 97 99 94 95 97 96 93 94 91 89 90 93 93 93 96 94 87 88 91 94 92
93 98 96 97 99 97 98 97 96 94 95 95 94 97 98 98 96 95 92 94 97 98

GFSNIL_prec_cthk_093.txt.gz
RH
71 73 66 63 54 57 57 54 36 34 39 46 57 62 68 76 84 90 91 94 81 98
76 64 65 57 60 60 58 54 39 40 43 50 55 63 71 83 88 96 98 94 91 96
72 66 65 59 58 61 62 54 43 42 45 50 55 63 71 81 94 97 97 97 95 98
77 75 68 62 63 64 64 56 46 44 46 49 54 62 67 85 98 99 99 99 97 98
85 80 75 67 69 67 66 57 47 45 51 51 52 59 65 86 97 98 98 97 98 98
93 90 71 65 68 69 73 58 48 46 54 55 55 61 67 83 98 99 98 98 99 98
96 95 75 69 71 75 73 67 54 50 53 56 56 62 65 74 96 98 98 98 98 99
98 98 78 76 77 79 78 72 67 59 55 56 58 62 66 74 87 96 98 99 98 99
98 96 84 79 79 84 82 78 70 64 65 59 57 64 67 70 74 88 97 97 97 99
94 98 87 83 85 86 87 86 83 76 70 73 67 66 69 73 76 75 79 96 98 99
97 99 95 97 93 91 91 92 90 87 79 77 77 78 79 79 79 82 82 74 78 82
99 99 100 96 93 94 97 95 94 93 88 83 85 83 82 85 87 86 88 91 91 89
95 98 94 92 93 94 96 95 95 94 92 93 88 89 88 86 89 91 90 90 90 88
86 90 98 91 98 99 96 95 96 95 93 93 95 96 93 90 91 92 93 95 95 96

GFSNIL_prec_cthk_096.txt.gz
RH
55 53 62 69 74 75 67 61 55 57 59 41 35 40 49 52 61 70 74 80 84 84
58 62 63 67 85 81 63 57 54 58 55 43 41 45 48 56 62 68 78 82 87 87
67 69 66 75 91 75 63 55 56 60 55 46 43 47 52 58 64 68 77 87 94 96
73 72 76 86 79 77 63 58 60 65 59 49 49 48 52 58 63 69 75 93 96 96
69 82 77 91 90 81 62 64 67 70 62 50 52 52 53 53 61 68 89 99 96 97
81 84 85 93 88 78 68 70 72 72 64 54 53 49 52 53 61 73 96 95 96 97
95 97 97 98 91 80 74 74 73 76 64 56 52 49 54 55 59 78 95 98 97 96
96 94 99 97 92 83 77 77 77 77 65 57 52 50 53 58 66 78 95 97 98 97
98 98 98 98 93 78 80 81 81 81 74 63 58 56 55 60 68 78 87 98 99 98
98 97 97 94 99 86 85 86 83 82 81 69 63 61 60 60 67 72 75 80 96 98
97 97 97 98 97 95 88 87 85 86 85 83 79 73 74 75 73 72 79 78 80 95
98 97 96 97 98 98 94 89 88 90 89 90 89 87 83 84 84 83 88 88 89 78
92 91 97 98 99 98 96 98 94 97 95 92 90 91 88 90 89 87 85 89 91 90
94 87 97 98 98 98 97 95 98 97 97 97 95 94 93 92 95 94 89 89 90 94

GFSNIL_prec_cthk_099.txt.gz
RH
60 67 62 55 53 53 57 72 78 77 76 76 64 62 50 39 50 50 59 66 68 75
60 66 66 63 61 63 64 71 73 80 78 73 66 63 46 43 48 54 61 61 68 74
66 68 71 70 66 66 81 86 93 87 78 68 66 60 46 44 51 51 56 61 68 73
73 76 75 71 68 69 75 80 91 90 76 66 66 56 47 48 50 53 58 63 67 72
85 94 85 78 76 73 72 76 94 83 72 71 70 59 53 53 53 55 57 63 68 72
90 87 91 81 81 78 72 78 89 77 74 73 72 62 52 54 57 56 56 62 66 83
93 92 89 90 87 81 79 79 90 75 73 73 72 61 56 55 56 53 61 66 79 89
92 93 92 88 90 94 88 89 85 75 76 78 74 64 56 55 55 58 64 70 85 92
94 94 96 98 95 98 97 97 84 78 77 77 73 66 60 57 54 59 67 70 87 96
96 98 97 99 97 97 99 98 90 82 79 79 74 74 69 62 58 61 68 70 73 92
95 98 98 98 99 98 99 98 94 83 80 80 80 81 77 73 69 65 68 72 71 77
99 96 98 98 98 97 98 99 94 87 86 85 87 88 89 86 80 78 80 77 85 81
91 95 97 97 99 98 99 98 98 97 91 88 89 91 95 94 91 87 87 83 83 85
92 93 95 96 98 98 98 98 98 98 95 92 94 95 97 95 95 93 90 92 90 87

GFSNIL_prec_cthk_102.txt.gz
RH
45 47 60 71 74 73 63 59 62 61 57 64 76 80 69 69 70 59 50 46 52 65
60 65 72 69 76 79 75 65 65 65 66 74 84 74 76 77 67 58 45 52 56 62
77 69 67 72 76 77 73 64 62 64 71 81 91 95 94 82 66 58 47 53 58 60
73 70 68 69 74 80 71 63 64 71 84 89 98 95 93 79 69 53 46 59 56 57
75 73 81 81 78 84 82 77 76 78 81 85 92 92 79 81 66 48 52 55 58 62
90 88 89 89 92 89 89 83 80 81 78 77 97 92 78 77 63 57 57 61 61 58
94 95 98 91 97 97 94 86 84 83 78 80 87 80 78 79 68 60 58 61 59 55
98 90 98 95 96 98 91 85 85 81 82 82 81 76 80 79 67 62 57 56 59 61
97 96 96 95 94 94 97 95 94 91 91 84 81 78 82 78 69 59 56 57 61 66
99 98 97 94 97 99 96 94 93 93 95 90 86 83 82 75 69 63 59 60 64 70
98 98 98 99 97 98 99 98 98 98 97 98 87 82 81 77 73 69 66 62 66 71
94 97 98 98 96 96 97 98 98 98 99 94 89 87 82 79 78 75 71 72 72 77
96 98 96 97 97 99 99 99 99 98 98 98 96 90 87 84 87 87 85 83 81 81
95 96 95 95 97 98 98 98 98 98 98 98 99 98 98 95 93 93 92 91 91 89

GFSNIL_prec_cthk_105.txt.gz
RH
60 56 48 45 43 58 63 53 63 71 63 68 79 73 77 69 77 79 80 74 65 56
65 59 53 48 45 58 63 61 70 75 70 75 78 80 73 71 79 81 82 76 69 49
67 64 63 68 56 61 66 71 76 79 71 71 78 77 72 78 87 97 86 74 62 50
73 70 80 84 82 73 78 80 84 78 77 71 71 70 71 81 95 93 83 71 56 45
79 77 76 77 82 79 76 82 84 73 70 68 68 71 79 83 86 91 82 71 57 44
83 87 83 79 78 82 86 81 88 77 75 72 71 75 80 80 91 85 88 71 58 43
89 94 95 89 88 88 87 84 88 90 84 78 82 83 82 86 92 94 85 69 52 54
97 98 97 95 98 97 95 93 93 92 91 86 84 81 79 79 88 79 78 71 58 59
97 98 96 97 98 95 97 99 94 94 91 87 82 81 78 84 81 78 79 69 59 66
96 98 97 96 95 93 99 98 98 96 93 91 84 84 86 82 79 80 81 71 64 60
96 97 98 99 99 99 94 95 96 97 98 95 93 95 93 91 86 82 84 72 66 63
97 97 97 98 98 96 92 93 98 97 98 95 95 95 98 97 91 84 82 74 73 73
97 97 97 97 96 96 94 95 97 99 98 98 98 99 97 98 94 85 82 77 77 76
95 93 95 97 97 96 96 97 98 98 98 98 98 98 98 99 96 91 87 82 88 87

GFSNIL_prec_cthk_108.txt.gz
RH
48 49 46 52 55 50 45 52 58 90 73 51 50 55 69 66 97 80 74 63 62 73
51 56 59 64 62 54 46 41 59 71 70 52 56 61 74 70 81 79 74 69 65 89
53 61 71 71 71 60 56 47 49 62 67 60 62 66 77 75 74 68 72 74 80 90
54 66 73 75 78 78 73 74 59 77 72 64 66 74 75 81 88 95 77 85 80 90
51 69 78 76 76 83 82 85 82 80 80 76 77 75 78 78 77 75 79 80 85 88
52 64 80 82 80 81 83 88 91 95 91 87 84 85 79 73 73 69 78 83 94 97
59 68 76 84 84 85 88 87 92 91 98 84 97 79 71 70 67 77 82 83 87 87
65 77 82 89 91 86 90 92 88 91 90 90 95 89 82 75 79 83 85 79 74 86
73 86 88 90 89 91 93 92 99 94 94 98 94 92 85 87 90 86 84 84 84 83
83 91 93 94 97 96 97 98 97 97 98 97 95 96 94 95 93 91 91 94 96 84
92 95 95 96 97 97 98 98 98 98 97 98 99 97 99 93 92 93 95 98 90 84
97 97 97 97 98 98 97 98 98 97 97 97 98 99 98 98 93 96 97 91 86 84
97 97 97 97 97 97 97 98 97 96 98 98 98 98 99 98 96 96 98 95 93 89
90 90 93 95 95 96 97 98 97 96 97 98 98 98 98 98 99 98 98 97 98 93

GFSNIL_prec_cthk_111.txt.gz
RH
35 35 40 40 40 42 43 42 41 41 44 51 54 66 73 80 81 70 63 60 77 77
36 37 39 41 46 47 49 51 50 45 42 44 49 66 82 93 79 68 67 72 70 73
38 37 37 44 47 52 54 61 60 54 50 47 59 82 89 85 77 63 60 82 73 86
41 40 40 44 50 53 57 64 67 74 72 57 70 89 88 71 64 64 76 87 77 77
43 46 44 46 48 55 61 67 69 77 83 77 81 89 88 72 65 70 88 76 84 89
50 50 49 49 49 57 62 70 73 75 76 81 86 94 86 81 80 82 78 88 94 78
53 53 54 52 55 58 64 74 79 80 79 83 91 97 98 91 90 82 85 91 92 81
60 58 55 56 60 63 74 79 84 85 89 92 95 93 91 92 97 87 86 91 79 84
66 64 62 63 66 73 80 86 89 91 91 90 90 93 93 86 94 88 86 77 87 87
72 71 69 68 75 84 88 91 93 94 96 93 93 96 90 89 90 92 91 94 90 90
80 79 79 80 85 92 94 93 93 94 95 96 98 97 93 98 95 92 96 99 94 95
89 92 95 96 95 97 97 96 93 97 98 98 98 98 98 98 95 98 97 97 98 93
92 91 90 94 95 97 97 97 96 97 97 98 99 99 98 98 97 98 95 92 92 97
80 79 78 81 82 84 86 91 94 95 96 97 96 97 98 98 98 98 96 97 97 97

GFSNIL_prec_cthk_114.txt.gz
RH
32 33 33 33 33 32 36 37 38 35 34 34 34 32 37 47 55 58 67 74 88 84
33 34 33 36 35 35 37 38 37 36 37 41 39 39 42 51 60 65 64 62 74 78
40 34 36 38 39 38 35 37 38 40 42 43 42 48 46 50 54 58 74 88 89 78
43 42 42 40 41 39 37 36 40 42 45 50 54 64 63 60 56 73 88 83 84 77
48 45 42 42 43 41 40 41 42 46 52 54 63 69 75 77 73 83 91 81 73 72
50 47 46 45 43 42 44 47 47 50 56 61 70 71 73 88 91 88 89 77 67 73
55 54 52 52 48 48 50 52 52 56 62 67 77 79 76 83 93 92 92 84 80 80
61 60 61 57 54 54 56 56 59 66 72 77 82 82 84 90 91 88 87 96 91 90
67 72 70 65 63 63 62 62 69 75 80 88 90 93 95 93 96 95 98 95 94 98
71 70 71 72 72 71 69 73 79 80 87 93 96 96 98 98 98 98 99 99 93 96
77 79 81 81 79 79 80 83 86 86 92 95 95 97 97 96 96 97 96 93 98 93
82 83 82 81 82 81 84 90 92 94 96 97 97 98 98 98 98 97 97 95 96 93
78 74 72 69 68 73 79 84 89 94 96 97 97 98 98 98 98 98 98 98 98 97
51 45 42 42 47 47 49 52 54 61 73 84 92 95 96 97 97 97 98 98 98 98

GFSNIL_prec_cthk_117.txt.gz
RH
42 39 45 37 36 33 32 29 27 29 35 38 36 36 37 35 32 31 36 41 44 48
47 46 46 45 40 38 41 41 35 31 32 36 39 41 40 39 36 37 37 39 46 53
47 49 47 51 51 41 39 37 38 35 29 34 38 40 41 39 38 38 38 42 51 59
42 41 39 39 43 52 44 39 36 35 35 36 36 36 42 42 43 43 45 54 60 59
42 42 40 41 42 42 45 44 40 39 39 37 37 39 42 45 47 50 57 67 73 61
46 45 45 46 46 46 44 42 43 43 42 41 40 42 46 48 50 56 64 76 86 87
53 52 49 49 51 52 50 52 51 48 47 45 47 48 50 53 57 66 74 86 97 91
62 60 59 59 58 59 59 57 56 55 54 53 53 54 56 61 67 75 82 84 92 97
66 65 69 67 67 67 66 63 61 60 59 59 58 58 63 70 80 84 89 91 93 93
72 72 71 68 70 71 71 70 68 67 66 64 63 65 66 81 90 95 98 98 97 96
74 71 70 68 67 67 68 67 71 72 69 69 68 71 74 88 96 98 98 99 99 98
75 70 65 58 53 50 49 50 52 57 66 74 77 78 83 94 98 98 98 99 99 99
55 45 38 33 32 33 37 41 46 46 47 51 65 77 88 93 96 97 97 98 97 99
31 29 30 33 36 35 35 33 30 30 35 37 41 47 58 77 88 91 96 97 98 97

GFSNIL_prec_cthk_120.txt.gz
RH
69 59 51 46 42 42 43 42 44 30 30 30 29 30 34 33 33 34 33 33 33 36
65 58 51 44 44 41 46 46 45 52 43 34 34 34 33 37 40 40 38 40 38 35
62 62 52 46 40 43 39 41 52 48 45 43 45 46 42 41 42 46 44 44 39 35
67 60 57 48 44 41 40 42 45 53 48 43 40 39 41 45 39 40 40 44 44 41
57 56 52 48 47 45 45 43 43 45 50 55 51 43 41 40 41 42 43 46 48 47
58 57 54 54 52 50 50 49 47 47 48 47 46 45 44 42 40 44 44 49 50 52
62 61 61 62 60 56 54 54 53 52 53 53 53 51 45 46 46 47 50 54 57 59
69 70 71 75 71 67 66 62 57 57 58 58 56 53 51 50 53 56 59 61 62 63
67 70 70 70 69 70 70 68 63 62 59 59 58 58 57 57 60 61 61 64 66 70
73 70 67 63 60 57 56 54 55 59 60 61 62 64 64 66 66 66 65 69 73 80
69 64 57 50 44 39 38 40 41 40 45 51 58 62 65 69 70 71 70 73 80 89
62 51 44 37 29 30 33 34 29 29 30 32 36 42 56 68 72 70 73 79 86 92
41 36 30 28 30 35 31 31 29 27 26 29 33 35 37 41 50 65 72 82 89 93
27 29 32 22 16 15 17 15 16 21 23 23 25 27 27 30 33 40 48 64 81 89